| time (UTC) | temp F | wind direction | speed MPH | gust MPH | rain 1hr in | rain 24hr in | rain mn in | humidity % | barometer mb |
| 20260506123552 | 52 | 237 | 2.0 | 2.0 | 0.00 | 0.00 | 0.00 | 93 | 1020.4 |
| 20260506123051 | 52 | 252 | 2.0 | 2.0 | 0.00 | 0.00 | 0.00 | 93 | 1020.0 |
| 20260506122547 | 52 | 238 | 1.0 | 1.0 | 0.00 | 0.00 | 0.00 | 93 | 1020.1 |
| 20260506122045 | 52 | 236 | 2.0 | 2.0 | 0.00 | 0.00 | 0.00 | 93 | 1019.7 |
| 20260506121542 | 52 | 245 | 0.0 | 0.0 | 0.00 | 0.00 | 0.00 | 93 | 1020.0 |
| 20260506121038 | 52 | 249 | 0.0 | 1.0 | 0.00 | 0.00 | 0.00 | 93 | 1020.0 |
| 20260506120537 | 52 | 264 | 4.0 | 5.0 | 0.00 | 0.00 | 0.00 | 93 | 1019.8 |
| 20260506120034 | 52 | 249 | 1.0 | 2.0 | 0.00 | 0.00 | 0.00 | 93 | 1019.8 |
| 20260506115531 | 52 | 249 | 2.0 | 2.0 | 0.00 | 0.00 | 0.00 | 93 | 1019.9 |
| 20260506115030 | 52 | 245 | 0.0 | 1.0 | 0.00 | 0.00 | 0.00 | 93 | 1019.6 |
| 20260506114527 | 52 | 250 | 0.0 | 0.0 | 0.00 | 0.00 | 0.00 | 94 | 1019.9 |
| 20260506114025 | 52 | 250 | 1.0 | 1.0 | 0.00 | 0.00 | 0.00 | 93 | 1019.8 |
| 20260506113523 | 52 | 246 | 0.0 | 1.0 | 0.00 | 0.00 | 0.00 | 94 | 1019.9 |
| 20260506113020 | 52 | 246 | 1.0 | 1.0 | 0.00 | 0.00 | 0.00 | 94 | 1019.9 |
| 20260506112516 | 52 | 251 | 1.0 | 2.0 | 0.00 | 0.00 | 0.00 | 94 | 1019.7 |
| 20260506112014 | 52 | 252 | 1.0 | 2.0 | 0.00 | 0.00 | 0.00 | 94 | 1019.6 |
| 20260506111512 | 51 | 258 | 2.0 | 2.0 | 0.00 | 0.00 | 0.00 | 94 | 1019.5 |
| 20260506111009 | 51 | 277 | 1.0 | 1.0 | 0.00 | 0.00 | 0.00 | 94 | 1019.4 |
| 20260506110506 | 51 | 240 | 1.0 | 2.0 | 0.00 | 0.00 | 0.00 | 94 | 1019.4 |
| 20260506110003 | 51 | 262 | 2.0 | 3.0 | 0.00 | 0.00 | 0.00 | 95 | 1019.4 |
| 20260506105459 | 51 | 238 | 3.0 | 3.0 | 0.00 | 0.00 | 0.00 | 95 | 1019.1 |
| 20260506104957 | 51 | 242 | 2.0 | 2.0 | 0.00 | 0.00 | 0.00 | 95 | 1019.2 |
| 20260506104454 | 51 | 269 | 2.0 | 2.0 | 0.00 | 0.00 | 0.00 | 95 | 1019.1 |
| 20260506103953 | 51 | 251 | 0.0 | 1.0 | 0.00 | 0.00 | 0.00 | 95 | 1019.2 |
| 20260506103449 | 51 | 253 | 1.0 | 1.0 | 0.00 | 0.00 | 0.00 | 96 | 1018.9 |
| 20260506102946 | 51 | 264 | 2.0 | 3.0 | 0.00 | 0.00 | 0.00 | 96 | 1018.9 |
| 20260506102444 | 51 | 252 | 2.0 | 2.0 | 0.00 | 0.00 | 0.00 | 96 | 1018.9 |
| 20260506101941 | 50 | 243 | 0.0 | 0.0 | 0.00 | 0.00 | 0.00 | 96 | 1018.9 |
| 20260506101437 | 50 | 242 | 2.0 | 2.0 | 0.00 | 0.00 | 0.00 | 96 | 1018.9 |
| 20260506100935 | 50 | 245 | 0.0 | 0.0 | 0.00 | 0.00 | 0.00 | 97 | 1018.6 |
| 20260506100433 | 50 | 243 | 3.0 | 3.0 | 0.00 | 0.00 | 0.00 | 97 | 1018.8 |
| 20260506095931 | 50 | 252 | 2.0 | 2.0 | 0.00 | 0.00 | 0.00 | 97 | 1018.9 |
| 20260506095429 | 50 | 241 | 1.0 | 2.0 | 0.00 | 0.00 | 0.00 | 97 | 1018.8 |
| 20260506094925 | 50 | 233 | 2.0 | 2.0 | 0.00 | 0.00 | 0.00 | 97 | 1018.8 |
| 20260506094424 | 50 | 258 | 2.0 | 2.0 | 0.00 | 0.00 | 0.00 | 97 | 1018.6 |
| 20260506093921 | 50 | 257 | 3.0 | 3.0 | 0.00 | 0.00 | 0.00 | 97 | 1018.5 |
| 20260506093419 | 50 | 253 | 3.0 | 3.0 | 0.00 | 0.00 | 0.00 | 97 | 1018.7 |
| 20260506092916 | 50 | 249 | 1.0 | 1.0 | 0.00 | 0.00 | 0.00 | 96 | 1018.6 |
| 20260506092414 | 50 | 247 | 2.0 | 2.0 | 0.00 | 0.00 | 0.00 | 96 | 1018.7 |
| 20260506091910 | 50 | 256 | 1.0 | 1.0 | 0.00 | 0.00 | 0.00 | 96 | 1018.7 |
| 20260506091409 | 51 | 244 | 1.0 | 1.0 | 0.00 | 0.00 | 0.00 | 96 | 1018.5 |
| 20260506090905 | 51 | 242 | 3.0 | 3.0 | 0.00 | 0.00 | 0.00 | 96 | 1018.7 |
| 20260506090403 | 51 | 260 | 2.0 | 2.0 | 0.00 | 0.00 | 0.00 | 96 | 1018.3 |
| 20260506085900 | 51 | 245 | 2.0 | 2.0 | 0.00 | 0.00 | 0.00 | 96 | 1018.4 |
| 20260506085356 | 51 | 235 | 3.0 | 3.0 | 0.00 | 0.00 | 0.00 | 96 | 1018.3 |
| 20260506084853 | 51 | 215 | 1.0 | 3.0 | 0.00 | 0.00 | 0.00 | 96 | 1018.4 |
| 20260506084349 | 51 | 242 | 2.0 | 3.0 | 0.00 | 0.00 | 0.00 | 96 | 1018.5 |
| 20260506083846 | 51 | 240 | 1.0 | 1.0 | 0.00 | 0.00 | 0.00 | 96 | 1018.7 |
| 20260506083343 | 51 | 242 | 1.0 | 2.0 | 0.00 | 0.00 | 0.00 | 95 | 1018.4 |
| 20260506082841 | 51 | 243 | 2.0 | 2.0 | 0.00 | 0.00 | 0.00 | 95 | 1018.4 |
| 20260506082337 | 51 | 243 | 2.0 | 2.0 | 0.00 | 0.00 | 0.00 | 95 | 1018.5 |
| 20260506081833 | 51 | 248 | 3.0 | 3.0 | 0.00 | 0.00 | 0.00 | 95 | 1018.3 |
| 20260506081332 | 51 | 246 | 2.0 | 2.0 | 0.00 | 0.00 | 0.00 | 95 | 1018.6 |
| 20260506080829 | 51 | 218 | 3.0 | 3.0 | 0.00 | 0.00 | 0.00 | 95 | 1018.4 |
| 20260506080325 | 51 | 248 | 2.0 | 3.0 | 0.00 | 0.00 | 0.00 | 95 | 1018.3 |
| 20260506073310 | 51 | 245 | 4.0 | 6.0 | 0.00 | 0.00 | 0.00 | 94 | 1017.8 |
| 20260506072806 | 51 | 250 | 3.0 | 3.0 | 0.00 | 0.00 | 0.00 | 95 | 1018.0 |
| 20260506072305 | 51 | 272 | 4.0 | 5.0 | 0.00 | 0.00 | 0.00 | 95 | 1017.9 |
| 20260506071801 | 51 | 249 | 1.0 | 1.0 | 0.00 | 0.00 | 0.00 | 95 | 1017.8 |
| 20260506071259 | 51 | 240 | 4.0 | 5.0 | 0.00 | 0.00 | 0.00 | 95 | 1018.1 |
| 20260506070756 | 51 | 268 | 2.0 | 2.0 | 0.00 | 0.00 | 0.00 | 95 | 1017.8 |
| 20260506070253 | 51 | 253 | 3.0 | 5.0 | 0.00 | 0.00 | 0.00 | 95 | 1017.9 |
| 20260506062230 | 52 | 251 | 3.0 | 3.0 | 0.00 | 0.00 | 0.00 | 94 | 1017.5 |
| 20260506061726 | 52 | 240 | 3.0 | 5.0 | 0.00 | 0.00 | 0.00 | 93 | 1017.5 |
| 20260506061224 | 52 | 260 | 4.0 | 7.0 | 0.00 | 0.00 | 0.00 | 93 | 1017.7 |
| 20260506060722 | 52 | 232 | 3.0 | 5.0 | 0.00 | 0.00 | 0.00 | 93 | 1017.6 |
| 20260506060219 | 52 | 248 | 2.0 | 2.0 | 0.00 | 0.00 | 0.00 | 93 | 1017.7 |
| 20260506051150 | 53 | 266 | 3.0 | 3.0 | 0.00 | 0.00 | 0.00 | 91 | 1017.1 |
| 20260506050649 | 53 | 258 | 2.0 | 2.0 | 0.00 | 0.00 | 0.00 | 90 | 1016.8 |
| 20260506050146 | 54 | 249 | 1.0 | 1.0 | 0.00 | 0.00 | 0.00 | 90 | 1017.0 |
| 20260506044637 | 54 | 247 | 2.0 | 2.0 | 0.00 | 0.00 | 0.00 | 90 | 1016.8 |
| 20260506044134 | 54 | 233 | 1.0 | 1.0 | 0.00 | 0.00 | 0.00 | 89 | 1016.9 |
| 20260506043631 | 54 | 246 | 1.0 | 1.0 | 0.00 | 0.00 | 0.00 | 89 | 1016.7 |
| 20260506043129 | 54 | 246 | 0.0 | 1.0 | 0.00 | 0.00 | 0.00 | 88 | 1016.5 |
| 20260506042627 | 55 | 250 | 1.0 | 2.0 | 0.00 | 0.00 | 0.00 | 88 | 1016.6 |
| 20260506042125 | 55 | 243 | 1.0 | 2.0 | 0.00 | 0.00 | 0.00 | 87 | 1016.6 |
| 20260506041624 | 55 | 232 | 2.0 | 2.0 | 0.00 | 0.00 | 0.00 | 87 | 1016.4 |
| 20260506041120 | 55 | 243 | 1.0 | 1.0 | 0.00 | 0.00 | 0.00 | 87 | 1016.3 |
| 20260506040618 | 55 | 245 | 3.0 | 3.0 | 0.00 | 0.00 | 0.00 | 86 | 1016.2 |
| 20260506040114 | 56 | 255 | 2.0 | 2.0 | 0.00 | 0.00 | 0.00 | 86 | 1016.3 |
| 20260506035611 | 56 | 235 | 2.0 | 2.0 | 0.00 | 0.00 | 0.00 | 86 | 1016.3 |
| 20260506035108 | 56 | 259 | 2.0 | 2.0 | 0.00 | 0.00 | 0.00 | 86 | 1016.3 |
| 20260506034605 | 56 | 268 | 2.0 | 3.0 | 0.00 | 0.00 | 0.00 | 85 | 1016.1 |
| 20260506034102 | 56 | 235 | 3.0 | 3.0 | 0.00 | 0.00 | 0.00 | 85 | 1015.8 |
| 20260506033559 | 56 | 253 | 3.0 | 3.0 | 0.00 | 0.00 | 0.00 | 84 | 1015.8 |
| 20260506033056 | 57 | 234 | 2.0 | 3.0 | 0.00 | 0.00 | 0.00 | 83 | 1015.7 |
| 20260506032553 | 57 | 241 | 3.0 | 3.0 | 0.00 | 0.00 | 0.00 | 83 | 1015.9 |
| 20260506032050 | 57 | 239 | 3.0 | 3.0 | 0.00 | 0.00 | 0.00 | 83 | 1015.9 |
| 20260506031548 | 57 | 262 | 4.0 | 5.0 | 0.00 | 0.00 | 0.00 | 82 | 1015.7 |
| 20260506031044 | 58 | 251 | 4.0 | 5.0 | 0.00 | 0.00 | 0.00 | 82 | 1015.9 |
| 20260506030543 | 58 | 249 | 3.0 | 3.0 | 0.00 | 0.00 | 0.00 | 82 | 1015.8 |
| 20260506030039 | 58 | 232 | 3.0 | 5.0 | 0.00 | 0.00 | 0.00 | 81 | 1016.0 |
| 20260506025536 | 59 | 266 | 3.0 | 5.0 | 0.00 | 0.00 | 0.00 | 80 | 1015.9 |
| 20260506025032 | 59 | 267 | 4.0 | 5.0 | 0.00 | 0.00 | 0.00 | 80 | 1015.9 |
| 20260506024529 | 59 | 250 | 4.0 | 5.0 | 0.00 | 0.00 | 0.00 | 79 | 1015.9 |
| 20260506024026 | 59 | 226 | 4.0 | 5.0 | 0.00 | 0.00 | 0.00 | 79 | 1015.9 |
| 20260506023522 | 60 | 251 | 4.0 | 5.0 | 0.00 | 0.00 | 0.00 | 79 | 1015.8 |
| 20260506023020 | 60 | 256 | 3.0 | 5.0 | 0.00 | 0.00 | 0.00 | 78 | 1015.8 |
| 20260506022517 | 60 | 243 | 5.0 | 6.0 | 0.00 | 0.00 | 0.00 | 78 | 1016.0 |
| 20260506022014 | 60 | 250 | 6.0 | 7.0 | 0.00 | 0.00 | 0.00 | 77 | 1015.9 |
| 20260506021512 | 60 | 250 | 4.0 | 5.0 | 0.00 | 0.00 | 0.00 | 78 | 1015.9 |
| 20260506021009 | 60 | 248 | 4.0 | 6.0 | 0.00 | 0.00 | 0.00 | 78 | 1015.9 |
| 20260506020507 | 61 | 246 | 3.0 | 5.0 | 0.00 | 0.00 | 0.00 | 77 | 1015.7 |
| 20260506020004 | 61 | 250 | 3.0 | 5.0 | 0.00 | 0.00 | 0.00 | 77 | 1015.8 |
| 20260506015501 | 61 | 268 | 5.0 | 7.0 | 0.00 | 0.00 | 0.00 | 77 | 1016.0 |
| 20260506014957 | 62 | 246 | 3.0 | 5.0 | 0.00 | 0.00 | 0.00 | 77 | 1015.9 |
| 20260506014455 | 63 | 250 | 4.0 | 7.0 | 0.00 | 0.00 | 0.00 | 75 | 1015.9 |
| 20260506013951 | 64 | 248 | 2.0 | 2.0 | 0.00 | 0.00 | 0.00 | 74 | 1015.8 |
| 20260506013449 | 65 | 251 | 1.0 | 2.0 | 0.00 | 0.00 | 0.00 | 72 | 1015.9 |
| 20260506012945 | 65 | 264 | 0.0 | 1.0 | 0.00 | 0.00 | 0.00 | 73 | 1016.1 |
| 20260506012442 | 65 | 261 | 2.0 | 3.0 | 0.00 | 0.00 | 0.00 | 73 | 1015.9 |
| 20260506011939 | 65 | 262 | 2.0 | 2.0 | 0.00 | 0.00 | 0.00 | 73 | 1015.9 |
| 20260506011436 | 65 | 267 | 2.0 | 3.0 | 0.00 | 0.00 | 0.00 | 73 | 1016.1 |
| 20260506010933 | 65 | 259 | 2.0 | 2.0 | 0.00 | 0.00 | 0.00 | 74 | 1015.9 |
| 20260506010432 | 65 | 245 | 3.0 | 3.0 | 0.00 | 0.00 | 0.00 | 73 | 1015.8 |
| 20260506005927 | 65 | 243 | 3.0 | 5.0 | 0.00 | 0.00 | 0.00 | 73 | 1016.0 |
| 20260506005426 | 65 | 256 | 2.0 | 3.0 | 0.00 | 0.00 | 0.00 | 73 | 1015.9 |
| 20260506004920 | 64 | 247 | 2.0 | 2.0 | 0.00 | 0.00 | 0.00 | 74 | 1015.9 |
| 20260506004419 | 65 | 252 | 1.0 | 2.0 | 0.00 | 0.00 | 0.00 | 74 | 1015.8 |
| 20260506003914 | 65 | 256 | 3.0 | 3.0 | 0.00 | 0.00 | 0.00 | 74 | 1015.7 |
| 20260506003411 | 65 | 260 | 3.0 | 3.0 | 0.00 | 0.00 | 0.00 | 74 | 1015.9 |
| 20260506002908 | 66 | 244 | 1.0 | 1.0 | 0.00 | 0.00 | 0.00 | 73 | 1015.9 |
| 20260506002403 | 66 | 225 | 2.0 | 2.0 | 0.00 | 0.00 | 0.00 | 73 | 1015.9 |
| 20260506001859 | 66 | 254 | 3.0 | 3.0 | 0.00 | 0.00 | 0.00 | 71 | 1015.8 |
| 20260506001356 | 66 | 242 | 1.0 | 1.0 | 0.00 | 0.00 | 0.00 | 72 | 1015.8 |
| 20260506000853 | 65 | 250 | 2.0 | 2.0 | 0.00 | 0.00 | 0.00 | 73 | 1016.0 |
| 20260506000353 | 67 | 245 | 4.0 | 5.0 | 0.00 | 0.00 | 0.00 | 71 | 1016.1 |
| 20260505235848 | 67 | 200 | 0.0 | 1.0 | 0.00 | 0.00 | 0.00 | 72 | 1016.3 |
| 20260505235345 | 66 | 219 | 0.0 | 1.0 | 0.00 | 0.00 | 0.00 | 72 | 1016.1 |
| 20260505234842 | 66 | 205 | 2.0 | 2.0 | 0.00 | 0.00 | 0.00 | 72 | 1016.2 |
| 20260505234340 | 66 | 235 | 2.0 | 2.0 | 0.00 | 0.00 | 0.00 | 72 | 1016.1 |
| 20260505233836 | 66 | 209 | 1.0 | 2.0 | 0.00 | 0.00 | 0.00 | 73 | 1016.4 |
| 20260505233334 | 66 | 195 | 1.0 | 2.0 | 0.00 | 0.00 | 0.00 | 73 | 1016.4 |
| 20260505232832 | 66 | 253 | 3.0 | 5.0 | 0.00 | 0.00 | 0.00 | 71 | 1016.5 |
| 20260505232329 | 66 | 265 | 1.0 | 1.0 | 0.00 | 0.00 | 0.00 | 73 | 1016.4 |
| 20260505231825 | 66 | 258 | 4.0 | 5.0 | 0.00 | 0.00 | 0.00 | 71 | 1016.6 |
| 20260505231324 | 65 | 254 | 1.0 | 1.0 | 0.00 | 0.00 | 0.00 | 73 | 1016.4 |
| 20260505230822 | 65 | 260 | 3.0 | 5.0 | 0.00 | 0.00 | 0.00 | 73 | 1016.5 |
| 20260505230318 | 65 | 259 | 3.0 | 3.0 | 0.00 | 0.00 | 0.00 | 73 | 1016.5 |
| 20260505225815 | 66 | 241 | 4.0 | 5.0 | 0.00 | 0.00 | 0.00 | 71 | 1016.6 |
| 20260505225312 | 65 | 259 | 1.0 | 2.0 | 0.00 | 0.00 | 0.00 | 74 | 1016.7 |
| 20260505224807 | 64 | 224 | 4.0 | 5.0 | 0.00 | 0.00 | 0.00 | 75 | 1016.5 |
| 20260505224305 | 63 | 256 | 2.0 | 2.0 | 0.00 | 0.00 | 0.00 | 76 | 1016.8 |
| 20260505223802 | 64 | 254 | 2.0 | 2.0 | 0.00 | 0.00 | 0.00 | 76 | 1016.9 |
| 20260505223259 | 63 | 223 | 3.0 | 3.0 | 0.00 | 0.00 | 0.00 | 77 | 1016.8 |
| 20260505222755 | 62 | 249 | 0.0 | 1.0 | 0.00 | 0.00 | 0.00 | 78 | 1016.9 |
| 20260505222251 | 62 | 251 | 5.0 | 6.0 | 0.00 | 0.00 | 0.00 | 77 | 1016.9 |
| 20260505221748 | 63 | 244 | 0.0 | 1.0 | 0.00 | 0.00 | 0.00 | 77 | 1017.1 |
| 20260505221245 | 62 | 268 | 3.0 | 3.0 | 0.00 | 0.00 | 0.00 | 78 | 1016.9 |
| 20260505220742 | 62 | 257 | 4.0 | 5.0 | 0.00 | 0.00 | 0.00 | 77 | 1017.0 |
| 20260505220239 | 63 | 250 | 4.0 | 7.0 | 0.00 | 0.00 | 0.00 | 77 | 1017.2 |
| 20260505215737 | 62 | 245 | 4.0 | 5.0 | 0.00 | 0.00 | 0.00 | 78 | 1017.1 |
| 20260505215235 | 62 | 203 | 2.0 | 2.0 | 0.00 | 0.00 | 0.00 | 78 | 1017.2 |
| 20260505214733 | 62 | 252 | 2.0 | 2.0 | 0.00 | 0.00 | 0.00 | 78 | 1017.1 |
| 20260505214229 | 62 | 274 | 4.0 | 5.0 | 0.00 | 0.00 | 0.00 | 79 | 1017.0 |
| 20260505213726 | 62 | 243 | 3.0 | 5.0 | 0.00 | 0.00 | 0.00 | 78 | 1017.1 |
| 20260505213224 | 62 | 250 | 2.0 | 2.0 | 0.00 | 0.00 | 0.00 | 80 | 1017.2 |
| 20260505212719 | 62 | 248 | 1.0 | 3.0 | 0.00 | 0.00 | 0.00 | 78 | 1017.4 |
| 20260505212217 | 61 | 255 | 4.0 | 5.0 | 0.00 | 0.00 | 0.00 | 79 | 1017.3 |
| 20260505211714 | 61 | 223 | 3.0 | 5.0 | 0.00 | 0.00 | 0.00 | 80 | 1017.3 |
| 20260505211212 | 61 | 245 | 3.0 | 5.0 | 0.00 | 0.00 | 0.00 | 80 | 1017.3 |
| 20260505210708 | 61 | 263 | 5.0 | 5.0 | 0.00 | 0.00 | 0.00 | 79 | 1017.3 |
| 20260505210205 | 61 | 264 | 3.0 | 6.0 | 0.00 | 0.00 | 0.00 | 79 | 1017.3 |
| 20260505205703 | 61 | 239 | 3.0 | 3.0 | 0.00 | 0.00 | 0.00 | 79 | 1017.4 |
| 20260505205200 | 60 | 258 | 2.0 | 3.0 | 0.00 | 0.00 | 0.00 | 81 | 1017.4 |
| 20260505204656 | 61 | 201 | 3.0 | 3.0 | 0.00 | 0.00 | 0.00 | 79 | 1017.5 |
| 20260505204155 | 60 | 257 | 1.0 | 2.0 | 0.00 | 0.00 | 0.00 | 81 | 1017.2 |
| 20260505203652 | 61 | 241 | 1.0 | 1.0 | 0.00 | 0.00 | 0.00 | 80 | 1017.2 |
| 20260505203148 | 61 | 240 | 7.0 | 8.0 | 0.00 | 0.00 | 0.00 | 79 | 1017.1 |
| 20260505202643 | 60 | 251 | 2.0 | 2.0 | 0.00 | 0.00 | 0.00 | 81 | 1017.3 |
| 20260505202140 | 60 | 246 | 5.0 | 6.0 | 0.00 | 0.00 | 0.00 | 81 | 1017.2 |
| 20260505201637 | 61 | 253 | 4.0 | 5.0 | 0.00 | 0.00 | 0.00 | 80 | 1017.3 |
| 20260505201135 | 60 | 253 | 2.0 | 2.0 | 0.00 | 0.00 | 0.00 | 81 | 1017.3 |
| 20260505200633 | 61 | 247 | 3.0 | 6.0 | 0.00 | 0.00 | 0.00 | 79 | 1017.3 |
| 20260505200129 | 61 | 219 | 3.0 | 5.0 | 0.00 | 0.00 | 0.00 | 79 | 1017.1 |
| 20260505195625 | 61 | 270 | 5.0 | 6.0 | 0.00 | 0.00 | 0.00 | 80 | 1017.4 |
| 20260505195123 | 60 | 239 | 0.0 | 1.0 | 0.00 | 0.00 | 0.00 | 81 | 1017.3 |
| 20260505194620 | 60 | 259 | 1.0 | 2.0 | 0.00 | 0.00 | 0.00 | 81 | 1017.3 |
| 20260505194115 | 60 | 236 | 3.0 | 3.0 | 0.00 | 0.00 | 0.00 | 81 | 1017.4 |
| 20260505193613 | 60 | 245 | 5.0 | 6.0 | 0.00 | 0.00 | 0.00 | 82 | 1017.4 |
| 20260505193110 | 59 | 247 | 2.0 | 2.0 | 0.00 | 0.00 | 0.00 | 82 | 1017.5 |
| 20260505192609 | 59 | 253 | 4.0 | 5.0 | 0.00 | 0.00 | 0.00 | 82 | 1017.3 |
| 20260505192106 | 59 | 258 | 5.0 | 7.0 | 0.00 | 0.00 | 0.00 | 83 | 1017.4 |
| 20260505191604 | 59 | 256 | 3.0 | 3.0 | 0.00 | 0.00 | 0.00 | 83 | 1017.6 |
| 20260505191101 | 59 | 252 | 4.0 | 5.0 | 0.00 | 0.00 | 0.00 | 83 | 1017.5 |
| 20260505190556 | 59 | 260 | 3.0 | 5.0 | 0.00 | 0.00 | 0.00 | 83 | 1017.5 |
| 20260505190052 | 59 | 251 | 5.0 | 6.0 | 0.00 | 0.00 | 0.00 | 84 | 1017.5 |
| 20260505185549 | 59 | 235 | 5.0 | 7.0 | 0.00 | 0.00 | 0.00 | 83 | 1017.4 |
| 20260505185045 | 59 | 250 | 3.0 | 5.0 | 0.00 | 0.00 | 0.00 | 83 | 1017.3 |
| 20260505184542 | 59 | 206 | 2.0 | 2.0 | 0.00 | 0.00 | 0.00 | 83 | 1017.2 |
| 20260505184039 | 59 | 235 | 1.0 | 2.0 | 0.00 | 0.00 | 0.00 | 83 | 1017.6 |
| 20260505183535 | 59 | 243 | 6.0 | 9.0 | 0.00 | 0.00 | 0.00 | 82 | 1017.2 |
| 20260505183033 | 59 | 200 | 2.0 | 2.0 | 0.00 | 0.00 | 0.00 | 84 | 1017.2 |
| 20260505182529 | 59 | 248 | 2.0 | 2.0 | 0.00 | 0.00 | 0.00 | 84 | 1017.4 |
| 20260505182026 | 59 | 252 | 4.0 | 5.0 | 0.00 | 0.00 | 0.00 | 83 | 1017.1 |
| 20260505181523 | 58 | 165 | 3.0 | 5.0 | 0.00 | 0.00 | 0.00 | 84 | 1017.4 |
| 20260505181020 | 58 | 107 | 3.0 | 5.0 | 0.00 | 0.00 | 0.00 | 84 | 1017.4 |
| 20260505180516 | 58 | 232 | 2.0 | 3.0 | 0.00 | 0.00 | 0.00 | 85 | 1017.3 |
| 20260505180014 | 58 | 231 | 1.0 | 1.0 | 0.00 | 0.00 | 0.00 | 85 | 1017.2 |
| 20260505175508 | 58 | 239 | 0.0 | 1.0 | 0.00 | 0.00 | 0.00 | 85 | 1017.4 |
| 20260505175006 | 58 | 218 | 2.0 | 2.0 | 0.00 | 0.00 | 0.00 | 85 | 1017.4 |
| 20260505174503 | 58 | 256 | 3.0 | 3.0 | 0.00 | 0.00 | 0.00 | 85 | 1017.3 |
| 20260505173959 | 58 | 260 | 2.0 | 5.0 | 0.00 | 0.00 | 0.00 | 85 | 1017.3 |
| 20260505173455 | 58 | 206 | 2.0 | 2.0 | 0.00 | 0.00 | 0.00 | 85 | 1017.0 |
| 20260505172952 | 58 | 219 | 1.0 | 1.0 | 0.00 | 0.00 | 0.00 | 86 | 1017.2 |
| 20260505172451 | 58 | 246 | 2.0 | 2.0 | 0.00 | 0.00 | 0.00 | 86 | 1017.0 |
| 20260505171950 | 57 | 181 | 4.0 | 5.0 | 0.00 | 0.00 | 0.00 | 86 | 1016.9 |
| 20260505171447 | 57 | 155 | 3.0 | 3.0 | 0.00 | 0.00 | 0.00 | 86 | 1017.1 |
| 20260505170944 | 57 | 191 | 2.0 | 3.0 | 0.00 | 0.00 | 0.00 | 87 | 1017.2 |
| 20260505170440 | 57 | 243 | 1.0 | 1.0 | 0.00 | 0.00 | 0.00 | 87 | 1017.2 |
| 20260505165936 | 57 | 243 | 1.0 | 2.0 | 0.00 | 0.00 | 0.00 | 88 | 1016.8 |
| 20260505165432 | 57 | 237 | 2.0 | 2.0 | 0.00 | 0.00 | 0.00 | 87 | 1017.0 |
| 20260505164927 | 57 | 247 | 2.0 | 2.0 | 0.00 | 0.00 | 0.00 | 88 | 1017.1 |
| 20260505164424 | 57 | 243 | 3.0 | 6.0 | 0.00 | 0.00 | 0.00 | 88 | 1016.9 |
| 20260505163922 | 57 | 266 | 2.0 | 3.0 | 0.00 | 0.00 | 0.00 | 88 | 1017.0 |
| 20260505163421 | 57 | 198 | 3.0 | 3.0 | 0.00 | 0.00 | 0.00 | 88 | 1017.0 |
| 20260505162920 | 56 | 252 | 3.0 | 3.0 | 0.00 | 0.00 | 0.00 | 89 | 1017.0 |
| 20260505162415 | 56 | 266 | 0.0 | 1.0 | 0.00 | 0.00 | 0.00 | 89 | 1017.1 |
| 20260505161912 | 56 | 257 | 1.0 | 2.0 | 0.00 | 0.00 | 0.00 | 89 | 1017.2 |
| 20260505161409 | 56 | 238 | 3.0 | 5.0 | 0.00 | 0.00 | 0.00 | 90 | 1017.2 |
| 20260505160906 | 56 | 195 | 2.0 | 3.0 | 0.00 | 0.00 | 0.00 | 90 | 1017.0 |
| 20260505160404 | 56 | 224 | 1.0 | 2.0 | 0.00 | 0.00 | 0.00 | 90 | 1017.0 |
| 20260505153343 | 55 | 235 | 3.0 | 5.0 | 0.00 | 0.00 | 0.00 | 91 | 1016.9 |
| 20260505152840 | 56 | 249 | 3.0 | 5.0 | 0.00 | 0.00 | 0.00 | 91 | 1017.1 |
| 20260505152338 | 56 | 241 | 4.0 | 7.0 | 0.00 | 0.00 | 0.00 | 91 | 1017.0 |
| 20260505151832 | 55 | 222 | 2.0 | 3.0 | 0.00 | 0.00 | 0.00 | 91 | 1016.9 |
| 20260505151329 | 55 | 260 | 1.0 | 2.0 | 0.00 | 0.00 | 0.00 | 91 | 1016.6 |
| 20260505150826 | 55 | 243 | 1.0 | 2.0 | 0.00 | 0.00 | 0.00 | 92 | 1016.8 |
| 20260505150323 | 55 | 238 | 2.0 | 3.0 | 0.00 | 0.00 | 0.00 | 92 | 1016.6 |
| 20260505140252 | 55 | 249 | 2.0 | 2.0 | 0.00 | 0.00 | 0.00 | 94 | 1016.0 |
| 20260505130216 | 53 | 246 | 0.0 | 0.0 | 0.00 | 0.00 | 0.00 | 94 | 1015.5 |
| 20260505124706 | 53 | 243 | 0.0 | 1.0 | 0.00 | 0.00 | 0.00 | 93 | 1015.2 |
| 20260505124203 | 53 | 245 | 0.0 | 0.0 | 0.00 | 0.00 | 0.00 | 93 | 1015.4 |